Location: Unspecified
(42.8200°N, 0.0000°E)
Time: 19:31:28
(UTC+00:00)

CZ-2C R/B - Visible Passes

Search period start: 04 April 2026 00:00
Search period end: 14 April 2026 00:00
Orbit: 668 x 739 km, 98.3° (Epoch: 29 March)

Date Brightness Start Highest point End Pass type
(mag) Time Alt. Az. Time Alt. Az. Time Alt. Az.
4 Apr ? 20:07:25 10° NE 20:10:54 28° E 20:10:54 28° E visible
4 Apr ? 21:45:04 10° N 21:49:23 33° WNW 21:49:49 32° W visible
5 Apr ? 20:49:56 10° NNE 20:54:35 74° ENE 20:54:35 74° ENE visible
5 Apr ? 22:29:26 10° NNW 22:31:56 14° WNW 22:33:31 12° W visible
6 Apr ? 19:56:00 10° NE 19:59:22 22° E 19:59:22 22° E visible
6 Apr ? 21:33:07 10° N 21:37:42 42° WNW 21:38:18 40° W visible
7 Apr ? 20:38:13 10° NNE 20:43:03 58° E 20:43:03 58° E visible
7 Apr ? 22:17:05 10° NNW 22:20:21 18° WNW 22:21:58 15° W visible
8 Apr ? 19:44:42 10° NE 19:47:50 18° E 19:47:50 18° E visible
8 Apr ? 21:21:15 10° N 21:26:01 55° WNW 21:26:45 50° WSW visible
9 Apr ? 20:26:34 10° NNE 20:31:17 44° E 20:31:31 44° ESE visible
9 Apr ? 22:04:57 10° NNW 22:08:44 23° WNW 22:10:25 19° W visible
10 Apr ? 19:33:42 10° ENE 19:36:06 13° E 19:36:17 13° E visible
10 Apr ? 21:09:25 10° N 21:14:19 71° WNW 21:15:11 57° SW visible
11 Apr ? 20:15:00 10° NNE 20:19:29 34° E 20:19:56 34° ESE visible
11 Apr ? 21:52:54 10° N 21:57:05 29° WNW 21:58:51 23° W visible
12 Apr ? 20:57:38 10° NNE 21:02:35 89° ESE 21:03:36 58° SSW visible
12 Apr ? 22:37:37 10° NW 22:39:36 12° WNW 22:41:34 10° W visible
13 Apr ? 20:03:30 10° NE 20:07:39 27° E 20:08:22 26° ESE visible
13 Apr ? 21:40:56 10° N 21:45:25 36° WNW 21:47:16 27° WSW visible
